FW1042 Weather Reports


Display with metric or nautical units.
time (UTC)temp
F
wind
direction
speed
MPH
gust
MPH
rain 1hr
in
rain 24hr
in
rain mn
in
humidity
%
barometer
mb
20200401061034 51 9 0.0 0.0 0.00 0.00 0.00 87 1015.4
20200401060520 51 9 0.0 0.0 0.00 0.00 0.00 87 1015.4
20200401055958 51 9 0.0 0.0 0.00 0.00 0.00 87 1015.2
20200401055445 51 9 0.0 0.0 0.00 0.00 0.00 87 1015.2
20200401054923 51 9 0.0 0.0 0.00 0.00 0.00 86 1015.3
20200401054423 51 9 0.0 0.0 0.00 0.00 0.00 85 1015.3
20200401053855 51 9 0.0 0.0 0.00 0.00 0.00 85 1015.5
20200401053324 51 9 0.0 0.0 0.00 0.00 0.00 85 1015.5
20200401052815 51 9 0.0 0.0 0.00 0.00 0.00 84 1015.6
20200401052305 52 9 0.0 0.0 0.00 0.00 0.00 84 1015.6
20200401051745 52 9 0.0 0.0 0.00 0.00 0.00 84 1015.5
20200401051232 52 9 0.0 0.0 0.00 0.00 0.00 84 1015.4
20200401050710 52 9 0.0 0.0 0.00 0.00 0.00 84 1015.4
20200401050227 52 9 0.0 0.0 0.00 0.00 0.00 83 1015.5
20200401045654 52 9 0.0 0.0 0.00 0.00 0.00 84 1015.6
20200401045202 52 9 0.0 0.0 0.00 0.00 0.00 84 1015.7
20200401044642 52 9 0.0 0.0 0.00 0.00 0.00 84 1015.7
20200401044141 52 9 0.0 0.0 0.00 0.00 0.00 83 1015.7
20200401043623 52 9 0.0 0.0 0.00 0.00 0.00 83 1015.8
20200401043108 52 9 0.0 0.0 0.00 0.00 0.00 83 1015.8
20200401042542 52 9 0.0 0.0 0.00 0.00 0.00 82 1015.8
20200401042040 53 9 0.0 0.0 0.00 0.00 0.00 83 1015.8
20200401041513 53 9 0.0 0.0 0.00 0.00 0.00 82 1015.8
20200401041004 53 9 0.0 0.0 0.00 0.00 0.00 83 1015.9
20200401040501 53 9 0.0 0.0 0.00 0.00 0.00 82 1015.9
20200401040002 53 9 0.0 0.0 0.00 0.00 0.00 81 1015.9
20200401035500 53 9 0.0 0.0 0.00 0.00 0.00 82 1015.7
20200401034958 53 9 0.0 0.0 0.00 0.00 0.00 82 1015.8
20200401034450 53 9 0.0 0.0 0.00 0.00 0.00 82 1015.8
20200401033930 54 9 0.0 0.0 0.00 0.00 0.00 83 1015.8
20200401033430 54 9 0.0 0.0 0.00 0.00 0.00 80 1015.8
20200401032923 54 9 0.0 0.0 0.00 0.00 0.00 80 1015.8
20200401032408 54 9 0.0 0.0 0.00 0.00 0.00 80 1015.7
20200401031857 54 9 0.0 0.0 0.00 0.00 0.00 80 1015.7
20200401031356 54 9 0.0 0.0 0.00 0.00 0.00 81 1015.6
20200401030837 55 9 0.0 0.0 0.00 0.00 0.00 78 1015.6
20200401030321 55 9 0.0 0.0 0.00 0.00 0.00 78 1015.6
20200401025811 55 9 0.0 0.0 0.00 0.00 0.00 78 1015.7
20200401025313 55 9 0.0 0.0 0.00 0.00 0.00 76 1015.6
20200401024805 56 9 0.0 0.0 0.00 0.00 0.00 77 1015.5
20200401024253 56 9 0.0 0.0 0.00 0.00 0.00 78 1015.5
20200401023746 56 9 0.0 0.0 0.00 0.00 0.00 73 1015.3
20200401023248 56 9 0.0 0.0 0.00 0.00 0.00 73 1015.3
20200401022726 57 9 0.0 0.0 0.00 0.00 0.00 73 1015.3
20200401022216 57 9 0.0 0.0 0.00 0.00 0.00 73 1015.3
20200401021701 57 9 0.0 0.0 0.00 0.00 0.00 72 1015.4
20200401021202 58 9 0.0 0.0 0.00 0.00 0.00 72 1015.3
20200401020648 58 9 0.0 0.0 0.00 0.00 0.00 72 1015.3
20200401020142 58 9 0.0 0.0 0.00 0.00 0.00 71 1015.3
20200401015635 59 9 0.0 0.0 0.00 0.00 0.00 71 1015.2
20200401015126 59 9 0.0 0.0 0.00 0.00 0.00 69 1015.1
20200401014613 60 9 0.0 0.0 0.00 0.00 0.00 68 1015.2
20200401014102 60 9 0.0 0.0 0.00 0.00 0.00 66 1015.2
20200401013602 60 9 0.0 0.0 0.00 0.00 0.00 66 1015.2
20200401013056 61 9 0.0 0.0 0.00 0.01 0.00 66 1015.3
20200401012552 61 9 0.0 0.0 0.00 0.01 0.00 65 1015.2
20200401012031 62 9 0.0 0.0 0.00 0.01 0.00 64 1015.2
20200401011511 62 9 0.0 0.0 0.00 0.01 0.00 62 1015.0
20200401011012 62 9 0.0 0.0 0.00 0.01 0.00 61 1015.2
20200401010508 63 9 0.0 0.0 0.00 0.01 0.00 61 1015.2
20200401010007 63 9 0.0 0.0 0.00 0.01 0.00 60 1015.1
20200401005500 63 9 0.0 0.0 0.00 0.01 0.00 60 1015.1
20200401004957 64 9 0.0 0.0 0.00 0.01 0.00 59 1015.1
20200401004458 64 9 0.0 0.0 0.00 0.01 0.00 58 1015.1
20200401003953 64 9 0.0 0.0 0.00 0.01 0.00 57 1015.3
20200401003425 65 9 0.0 0.0 0.00 0.01 0.00 57 1015.3
20200401002900 65 9 0.0 0.0 0.00 0.01 0.00 56 1015.4
20200401002359 66 9 0.0 0.0 0.00 0.01 0.00 55 1015.4
20200401001858 66 9 0.0 0.0 0.00 0.01 0.00 55 1015.5
20200401001345 67 9 0.0 0.0 0.00 0.02 0.00 53 1015.5
20200401000836 68 9 1.0 5.0 0.00 0.02 0.00 52 1015.5
20200401000327 68 9 1.0 6.0 0.00 0.02 0.00 52 1015.5
20200331235822 69 0 0.0 6.0 0.00 0.02 0.00 51 1015.4
20200331235314 69 355 0.0 0.0 0.00 0.03 0.00 51 1015.5
20200331234813 69 355 0.0 0.0 0.00 0.03 0.00 52 1015.6
20200331234238 69 355 0.0 1.0 0.00 0.04 0.00 53 1015.5
20200331233718 69 355 0.0 1.0 0.00 0.04 0.00 52 1015.4
20200331233208 69 355 0.0 0.0 0.00 0.05 0.00 52 1015.5
20200331232709 69 355 0.0 0.0 0.00 0.05 0.00 52 1015.4
20200331232205 69 355 0.0 3.0 0.00 0.06 0.00 52 1015.5
20200331231701 69 355 1.0 3.0 0.00 0.06 0.00 52 1015.3
20200331231200 69 355 1.0 4.0 0.00 0.06 0.00 51 1015.4
20200331230652 69 355 0.0 5.0 0.00 0.07 0.00 51 1015.5
20200331230144 70 355 0.0 4.0 0.00 0.07 0.00 51 1015.7
20200331225615 70 346 0.0 2.0 0.00 0.08 0.00 51 1015.6
20200331225107 70 355 0.0 2.0 0.00 0.08 0.00 52 1015.7
20200331224605 69 355 0.0 0.0 0.00 0.09 0.00 53 1015.6
20200331224058 68 355 0.0 4.0 0.00 0.10 0.00 54 1015.6
20200331223543 68 355 0.0 4.0 0.00 0.14 0.00 55 1015.6
20200331223014 68 355 0.0 5.0 0.00 0.20 0.00 55 1015.6
20200331222508 68 355 1.0 5.0 0.00 0.23 0.00 54 1015.6
20200331222004 68 350 1.0 5.0 0.00 0.24 0.00 54 1015.5
20200331221500 68 331 1.0 7.0 0.00 0.24 0.00 55 1015.5
20200331220952 69 342 1.0 12.0 0.00 0.24 0.00 54 1015.5
20200331220451 69 297 0.0 10.0 0.00 0.25 0.00 53 1015.5
20200331215950 69 305 1.0 6.0 0.00 0.26 0.00 53 1015.7
20200331215445 69 286 1.0 6.0 0.00 0.27 0.00 53 1015.7
20200331214945 69 273 1.0 6.0 0.00 0.27 0.00 54 1015.7
20200331214414 69 9 1.0 6.0 0.00 0.28 0.00 55 1015.7
20200331213915 69 346 0.0 6.0 0.00 0.28 0.00 54 1015.6
20200331213409 68 340 0.0 3.0 0.00 0.28 0.00 55 1015.8
20200331212859 68 339 0.0 5.0 0.00 0.29 0.00 55 1015.7
20200331212353 69 339 0.0 5.0 0.00 0.30 0.00 54 1015.8
20200331211846 68 0 0.0 4.0 0.00 0.30 0.00 55 1015.8
20200331211340 68 0 0.0 5.0 0.00 0.30 0.00 54 1015.8
20200331210831 68 336 0.0 2.0 0.00 0.30 0.00 55 1015.9
20200331210324 67 34 1.0 5.0 0.00 0.30 0.00 56 1016.0
20200331205813 67 28 0.0 5.0 0.00 0.31 0.00 55 1015.9
20200331205310 68 5 1.0 4.0 0.00 0.32 0.00 56 1016.0
20200331204814 67 9 1.0 7.0 0.00 0.32 0.00 59 1016.0
20200331204302 67 0 1.0 7.0 0.00 0.32 0.00 56 1016.3
20200331203758 67 349 1.0 4.0 0.00 0.32 0.00 57 1016.3
20200331203252 67 5 0.0 4.0 0.00 0.32 0.00 57 1016.4
20200331202752 67 0 1.0 5.0 0.00 0.32 0.00 57 1016.4
20200331202203 67 0 1.0 7.0 0.00 0.32 0.00 57 1016.4
20200331201642 67 13 0.0 7.0 0.00 0.32 0.00 58 1016.5
20200331201139 67 9 1.0 6.0 0.00 0.32 0.00 58 1016.7
20200331200617 67 21 1.0 4.0 0.00 0.32 0.00 59 1016.7
20200331200117 66 350 1.0 4.0 0.00 0.32 0.00 58 1016.8
20200331195616 66 16 1.0 4.0 0.00 0.32 0.00 58 1016.8
20200331195112 66 19 2.0 5.0 0.00 0.32 0.00 59 1016.9
20200331194608 66 22 1.0 5.0 0.00 0.32 0.00 58 1017.1
20200331194106 66 355 2.0 7.0 0.00 0.32 0.00 58 1017.0
20200331193604 66 0 2.0 7.0 0.00 0.32 0.00 57 1017.1
20200331193102 65 5 2.0 7.0 0.00 0.32 0.00 60 1017.1
20200331192558 66 5 3.0 9.0 0.00 0.32 0.00 59 1017.2
20200331192056 65 11 2.0 9.0 0.00 0.32 0.00 59 1017.2
20200331191554 66 350 2.0 8.0 0.00 0.33 0.00 59 1017.4
20200331191051 65 5 2.0 7.0 0.00 0.33 0.00 59 1017.4
20200331190551 65 355 2.0 8.0 0.00 0.34 0.00 60 1017.2
20200331190044 65 0 3.0 8.0 0.00 0.35 0.00 59 1017.3
20200331185540 65 5 3.0 8.0 0.00 0.36 0.00 60 1017.3
20200331185037 65 343 2.0 7.0 0.00 0.36 0.00 61 1017.4
20200331184531 64 65 2.0 8.0 0.00 0.36 0.00 63 1017.3
20200331184029 64 355 2.0 8.0 0.00 0.36 0.00 63 1017.3
20200331183525 65 44 2.0 8.0 0.00 0.36 0.00 64 1017.3
20200331183024 64 24 2.0 7.0 0.00 0.36 0.00 63 1017.5
20200331182522 64 46 2.0 9.0 0.00 0.36 0.00 64 1017.5
20200331182021 64 37 2.0 9.0 0.00 0.36 0.00 63 1017.5
20200331181522 64 41 3.0 10.0 0.00 0.36 0.00 64 1017.6
20200331181018 64 5 4.0 13.0 0.00 0.36 0.00 65 1017.6
20200331180517 63 20 4.0 13.0 0.00 0.36 0.00 66 1017.6
20200331180016 63 31 4.0 10.0 0.00 0.36 0.00 66 1017.6
20200331175515 62 348 4.0 11.0 0.00 0.36 0.00 67 1017.7
20200331175012 62 345 4.0 11.0 0.00 0.36 0.00 70 1017.7
20200331174510 62 349 4.0 11.0 0.00 0.36 0.00 68 1017.7
20200331174007 62 355 4.0 11.0 0.00 0.36 0.00 68 1017.9
20200331173506 61 351 4.0 11.0 0.00 0.36 0.00 71 1017.8
20200331173005 61 344 3.0 11.0 0.00 0.36 0.00 70 1017.8
20200331172504 61 0 3.0 10.0 0.00 0.36 0.00 74 1017.8
20200331172002 60 355 3.0 10.0 0.00 0.36 0.00 71 1017.9
20200331171504 61 0 3.0 10.0 0.00 0.36 0.00 71 1017.9
20200331170959 61 13 3.0 11.0 0.00 0.36 0.00 71 1018.1
20200331170456 62 14 3.0 11.0 0.00 0.36 0.00 70 1018.1
20200331165954 62 9 2.0 10.0 0.00 0.36 0.00 72 1018.0
20200331165449 61 351 2.0 9.0 0.00 0.36 0.00 73 1018.0
20200331164945 60 332 3.0 10.0 0.00 0.36 0.00 77 1018.0
20200331164445 60 71 3.0 10.0 0.00 0.36 0.00 77 1018.0
20200331163943 59 32 3.0 10.0 0.00 0.36 0.00 78 1018.0
20200331163441 59 0 3.0 10.0 0.00 0.36 0.00 78 1017.9
20200331162940 58 16 4.0 11.0 0.00 0.36 0.00 79 1018.0
20200331162440 58 9 4.0 11.0 0.00 0.36 0.00 78 1018.1
20200331161941 58 355 2.0 10.0 0.00 0.36 0.00 79 1018.0
20200331161434 58 18 2.0 10.0 0.00 0.36 0.00 78 1018.0
20200331160932 58 355 2.0 8.0 0.00 0.36 0.00 78 1018.1
20200331160432 58 5 2.0 9.0 0.00 0.36 0.00 79 1018.0
20200331155931 58 17 2.0 9.0 0.00 0.36 0.00 79 1017.9
20200331155433 58 340 1.0 5.0 0.00 0.36 0.00 80 1017.8
20200331154928 58 331 2.0 16.0 0.00 0.36 0.00 80 1017.7
20200331154425 58 340 4.0 16.0 0.00 0.36 0.00 80 1017.6
20200331153924 58 5 4.0 15.0 0.00 0.36 0.00 81 1017.5
20200331153421 58 321 3.0 15.0 0.00 0.36 0.00 82 1017.5
20200331152916 58 349 3.0 10.0 0.00 0.36 0.00 82 1017.4
20200331152415 58 342 3.0 11.0 0.00 0.36 0.00 82 1017.4
20200331151908 57 5 2.0 11.0 0.00 0.36 0.00 82 1017.5
20200331151405 58 5 3.0 10.0 0.00 0.36 0.00 81 1017.3
20200331150904 57 0 2.0 10.0 0.00 0.36 0.00 82 1017.2
20200331150407 57 325 2.0 9.0 0.00 0.36 0.00 84 1017.2
20200331145859 56 323 2.0 8.0 0.00 0.36 0.00 84 1017.1
20200331145359 56 12 3.0 9.0 0.00 0.36 0.00 85 1017.2
20200331144857 56 342 3.0 9.0 0.00 0.36 0.00 86 1017.2
20200331144357 55 11 3.0 11.0 0.00 0.36 0.00 86 1017.1
20200331143856 55 321 2.0 11.0 0.00 0.36 0.00 87 1017.0
20200331143350 55 344 2.0 8.0 0.00 0.37 0.00 87 1017.0
20200331142849 55 346 2.0 8.0 0.00 0.37 0.00 88 1016.9
20200331142347 55 331 1.0 7.0 0.00 0.37 0.00 88 1016.9
20200331141847 55 5 1.0 7.0 0.00 0.37 0.00 88 1016.8
20200331141336 55 344 1.0 5.0 0.00 0.37 0.00 89 1016.7
20200331140831 55 325 1.0 7.0 0.00 0.37 0.00 89 1016.6
20200331140332 55 348 1.0 7.0 0.00 0.37 0.00 90 1016.4
20200331135830 55 323 1.0 8.0 0.00 0.37 0.00 90 1016.3
20200331135313 55 336 2.0 8.0 0.00 0.37 0.00 91 1016.3
20200331134806 55 5 2.0 7.0 0.00 0.37 0.00 91 1016.4
20200331134305 54 348 1.0 6.0 0.00 0.37 0.00 91 1016.3
20200331133800 54 318 1.0 6.0 0.00 0.37 0.00 91 1016.4
20200331133250 54 315 1.0 8.0 0.00 0.37 0.00 91 1016.2
20200331132732 54 15 1.0 8.0 0.00 0.37 0.00 91 1016.0
20200331132215 54 327 1.0 6.0 0.00 0.37 0.00 92 1016.0
20200331131712 54 273 1.0 6.0 0.00 0.37 0.00 92 1015.8
20200331131209 54 298 1.0 5.0 0.00 0.37 0.00 92 1015.7
20200331130706 54 335 1.0 4.0 0.00 0.37 0.00 92 1015.7
20200331130206 53 329 0.0 5.0 0.00 0.37 0.00 92 1015.6
20200331125705 53 331 0.0 7.0 0.00 0.37 0.00 92 1015.5
20200331125132 53 331 1.0 7.0 0.00 0.37 0.00 92 1015.4
20200331124633 53 347 1.0 5.0 0.00 0.37 0.00 92 1015.3
20200331124112 53 302 1.0 5.0 0.00 0.37 0.00 92 1015.3
20200331123609 53 331 0.0 4.0 0.00 0.37 0.00 93 1015.2
20200331123107 53 336 1.0 4.0 0.00 0.37 0.00 93 1015.3
20200331122551 53 346 1.0 5.0 0.00 0.37 0.00 93 1015.3
20200331122047 53 321 1.0 5.0 0.00 0.37 0.00 93 1015.4
20200331121536 53 310 1.0 7.0 0.00 0.37 0.00 93 1015.4
20200331121030 53 323 1.0 7.0 0.00 0.37 0.00 93 1015.3
20200331120530 53 312 1.0 5.0 0.00 0.37 0.00 93 1015.4
20200331120027 53 307 0.0 4.0 0.00 0.37 0.00 94 1015.3
20200331115524 53 305 0.0 4.0 0.00 0.37 0.00 93 1015.2
20200331115025 53 313 0.0 4.0 0.00 0.37 0.00 93 1015.1
20200331114519 53 309 0.0 6.0 0.00 0.37 0.00 93 1014.8
20200331114006 53 344 0.0 6.0 0.00 0.37 0.00 94 1014.7
20200331113459 53 314 0.0 4.0 0.00 0.37 0.00 94 1014.7
20200331112948 52 313 0.0 4.0 0.00 0.37 0.00 94 1014.7
20200331112441 52 290 0.0 1.0 0.00 0.37 0.00 94 1014.6
20200331111936 52 290 0.0 1.0 0.00 0.37 0.00 93 1014.6
20200331111414 52 290 0.0 2.0 0.00 0.37 0.00 93 1014.2
20200331110907 52 290 0.0 2.0 0.00 0.37 0.00 93 1014.1
20200331110345 53 290 0.0 3.0 0.00 0.37 0.00 93 1014.1
20200331105841 53 291 0.0 4.0 0.00 0.37 0.00 93 1014.0
20200331105316 53 292 0.0 4.0 0.00 0.37 0.00 93 1013.9
20200331104803 53 323 0.0 3.0 0.00 0.37 0.00 93 1014.0
20200331104240 53 325 0.0 4.0 0.00 0.37 0.00 93 1014.1
20200331103715 53 326 0.0 6.0 0.00 0.37 0.00 93 1014.1
20200331103208 53 311 0.0 6.0 0.00 0.37 0.00 93 1014.0
20200331102649 53 311 0.0 6.0 0.00 0.37 0.00 93 1014.0
20200331102136 53 331 2.0 9.0 0.00 0.37 0.00 93 1014.0
20200331101635 53 347 2.0 9.0 0.00 0.37 0.00 93 1013.9
20200331101136 53 323 2.0 10.0 0.00 0.37 0.00 93 1014.0
20200331100635 53 348 3.0 11.0 0.00 0.37 0.00 94 1013.8
20200331100136 53 340 3.0 12.0 0.00 0.37 0.00 94 1013.7
20200331095626 53 321 3.0 12.0 0.00 0.37 0.00 94 1013.6
20200331095124 53 296 3.0 9.0 0.00 0.37 0.00 94 1013.5
20200331094620 53 340 2.0 8.0 0.00 0.37 0.00 95 1013.3
20200331094120 53 297 2.0 9.0 0.00 0.37 0.00 95 1013.3
20200331093619 53 307 3.0 10.0 0.00 0.37 0.00 95 1013.2
20200331093118 53 300 3.0 10.0 0.00 0.37 0.00 96 1013.0
20200331092619 53 323 1.0 8.0 0.00 0.37 0.00 96 1013.0
20200331091112 53 326 1.0 7.0 0.00 0.37 0.00 96 1012.7
20200331090606 53 326 1.0 7.0 0.00 0.37 0.00 96 1012.7
20200331090101 53 315 1.0 5.0 0.00 0.37 0.00 96 1012.6
20200331085602 53 5 1.0 6.0 0.00 0.37 0.00 96 1012.6
20200331085101 53 355 1.0 7.0 0.00 0.37 0.00 96 1012.5
20200331084555 53 322 1.0 7.0 0.00 0.37 0.00 96 1012.5
20200331084055 53 350 0.0 7.0 0.00 0.37 0.00 96 1012.6
20200331083550 53 310 0.0 6.0 0.00 0.37 0.00 96 1012.5
20200331083044 53 328 0.0 6.0 0.00 0.37 0.00 96 1012.1
20200331082526 53 328 0.0 5.0 0.00 0.37 0.00 96 1011.9
20200331082013 53 328 0.0 5.0 0.00 0.37 0.00 96 1012.2
20200331081511 53 9 0.0 3.0 0.00 0.37 0.00 96 1011.8
20200331081009 53 9 0.0 3.0 0.00 0.37 0.00 96 1011.7
20200331080454 53 5 0.0 2.0 0.00 0.37 0.00 96 1011.7
20200331075940 53 5 0.0 0.0 0.00 0.37 0.00 96 1011.6
20200331075430 53 5 0.0 3.0 0.00 0.37 0.00 96 1011.6
20200331074902 53 5 0.0 3.0 0.00 0.37 0.00 96 1011.4
20200331074402 53 5 0.0 0.0 0.00 0.37 0.00 96 1011.2
20200331073902 53 5 0.0 0.0 0.00 0.37 0.00 96 1011.1
20200331073350 53 5 0.0 3.0 0.00 0.37 0.00 96 1011.5
20200331072817 53 5 1.0 4.0 0.00 0.37 0.00 96 1011.5
20200331072316 53 5 0.0 4.0 0.00 0.37 0.00 96 1011.7
20200331071809 53 5 0.0 3.0 0.00 0.37 0.00 96 1011.9
20200331071303 53 5 0.0 5.0 0.00 0.37 0.00 96 1012.0
20200331070803 53 5 1.0 8.0 0.00 0.37 0.00 96 1012.2
20200331070258 53 0 2.0 8.0 0.00 0.37 0.00 96 1012.2
20200331065755 53 9 1.0 8.0 0.00 0.37 0.00 96 1012.4
20200331065255 53 46 1.0 5.0 0.00 0.37 0.00 96 1012.3
20200331064750 53 51 0.0 4.0 0.00 0.37 0.00 96 1012.3
20200331064247 53 52 0.0 2.0 0.00 0.37 0.00 96 1012.0
20200331063715 53 52 0.0 0.0 0.00 0.37 0.00 96 1011.8
20200331063212 53 52 0.0 1.0 0.00 0.37 0.00 96 1011.9
20200331062655 53 52 0.0 1.0 0.00 0.37 0.00 96 1012.0
20200331062153 53 52 0.0 0.0 0.00 0.37 0.00 96 1012.1
20200331061637 53 52 0.0 0.0 0.00 0.37 0.00 96 1012.2
20200331061122 53 52 0.0 0.0 0.00 0.37 0.00 96 1012.2